Hourly Data Report for September 15, 2017

All times are specified in Local Standard Time (LST). Add 1 hour to adjust for Daylight Saving Time where and when it is observed.

EDMUNDSTON
NEW BRUNSWICK

47°25'00.000" N
68°19'28.040" W
154.20 m
8101303
71590
ERM

Download Data

Hourly Data (September 2017)
Hourly Data Report for September 15, 2017
Temp Definition
°C
Dew Point Temp Definition
°C
Rel Hum Definition
%
Wind Dir Definition
10's deg

Wind Spd Definition
km/h
Visibility Definition
km
Stn Press Definition
kPa
Hmdx Definition


Wind Chill Definition


Weather Definition


TIME
00:00 6.4 5.0 91 29 4   99.73     LegendNANA
01:00 5.5 4.6 94 34 3   99.80     LegendNANA
02:00 4.5 3.5 94 33 4   99.86     LegendNANA
03:00 4.1 3.3 94 0 1   99.89     LegendNANA
04:00 4.5 3.8 95 28 5   99.94     LegendNANA
05:00 4.0 3.2 95 28 5   100.02     LegendNANA
06:00 2.8 2.0 94 29 3   100.08     LegendNANA
07:00 3.6 3.0 95 26 3   100.12     LegendNANA
08:00 6.0 4.8 92   0   100.21     LegendNANA
09:00 10.1 6.9 80 24 5   100.26     LegendNANA
10:00 13.6 7.4 66 21 3   100.28     LegendNANA
11:00 16.7 6.7 52 14 4   100.25     LegendNANA
12:00 18.3 5.6 43 30 4   100.22     LegendNANA
13:00 19.9 4.1 35 29 3   100.16     LegendNANA
14:00 21.0 4.3 33 18 3   100.11     LegendNANA
15:00 21.8 7.1 39 17 3   100.08     LegendNANA
16:00 21.9 5.8 35 17 2   100.04     LegendNANA
17:00 20.8 8.5 45 17 6   100.07     LegendNANA
18:00 18.6 11.2 62 9 2   100.10     LegendNANA
19:00 13.8 10.8 82   0   100.12     LegendNANA
20:00 10.9 8.9 87 34 2   100.15     LegendNANA
21:00 10.0 8.4 90   0   100.11     LegendNANA
22:00 9.6 8.2 91   0   100.12     LegendNANA
23:00 8.6 7.5 93   0   100.08     LegendNANA

Notes on Data Quality.

Legend

  • E = Estimated
  • M = Missing
  • NA = Not Available
  • ‡ = Partner data that is not subject to review by the National Climate Archives
Date modified: